Location: Burbank
(38.7788°N, 114.0429°W)
Time: 01:58:59
(UTC+00:00)

Tiros 1 despin weight - Pass Details

Date: 11 May 2026
Orbit: 554 x 591 km, 48.2° (Epoch: 6 June)

Event Time Altitude Azimuth Distance (km) Brightness Sun altitude
Rises 18:34:16 0° 304° (WNW) 2,730 ? 65.7°
Reaches altitude 10° 18:36:40 10° 313° (NW) 1,834 ? 66.0°
Maximum altitude 18:40:31 35° 20° (NNE) 912 ? 66.4°
Drops below altitude 10° 18:44:22 10° 87° (E) 1,835 ? 66.8°
Sets 18:46:47 0° 96° (E) 2,732 ? 67.0°
